Voltar ao catálogo

NOAA 17 DEB

AtivoPO
NORAD 48754·DEBRIS·🇺🇸 United States

Lançado Jun 24, 2002 de Vandenberg Space Force Base

Loading…

Próximas Passagens (próximas 24 horas)

TLE

AtualizadoSource: Space-Track

Época: Sep 13, 2026, 03:10 UTC

1 48754U 02032CP  26256.13202908  .00010591  00000-0  15941-2 0  9999
2 48754  98.9330 326.3708 0010572 241.6870 118.3270 14.74614298287537

Acompanhe NOAA 17 DEB em tempo real com AllMySat

Download on the App Store